Location: Newark
(46.0167°N, 11.3000°E)
Time: 04:30:26
(UTC+00:00)

Envisat - Visible Passes

Search period start: 20 November 2019 00:00
Search period end: 30 November 2019 00:00
Orbit: 764 x 766 km, 98.1° (Epoch: 19 November)

Date Brightness Start Highest point End Pass type
(mag) Time Alt. Az. Time Alt. Az. Time Alt. Az.
20 Nov 5.1 05:24:13 10° NNE 05:28:44 31° E 05:33:11 10° SSE visible
20 Nov 3.1 16:41:00 10° SE 16:45:53 51° ENE 16:50:50 10° N visible
20 Nov 5.4 18:21:20 10° SW 18:25:13 22° W 18:29:07 10° NW visible
21 Nov 6.1 04:48:45 10° NE 04:51:34 15° E 04:54:22 10° ESE visible
21 Nov 3.9 16:05:14 10° ESE 16:09:23 26° ENE 16:13:33 10° N visible
21 Nov 4.1 17:43:20 10° S 17:48:10 45° W 17:53:04 10° NNW visible
22 Nov 4.1 05:49:23 10° NNE 05:54:22 52° E 05:59:18 10° S visible
22 Nov 2.9 17:06:15 10° SSE 17:11:20 86° ENE 17:16:27 10° NNW visible
22 Nov 6.1 18:48:50 10° WSW 18:51:02 13° W 18:53:14 10° WNW visible
23 Nov 5.5 05:13:11 10° NE 05:17:21 25° E 05:21:29 10° SSE visible
23 Nov 3.3 16:29:56 10° SE 16:34:41 42° ENE 16:39:27 10° N visible
23 Nov 5.1 18:09:34 10° SSW 18:13:50 27° W 18:18:09 10° NW visible
24 Nov 6.3 04:38:27 10° ENE 04:40:08 12° E 04:41:50 10° ESE visible
24 Nov 3.6 17:31:52 10° S 17:36:51 57° W 17:41:52 10° NNW visible
25 Nov 4.5 05:38:13 10° NNE 05:43:03 41° E 05:47:50 10° SSE visible
25 Nov 2.9 16:55:02 10° SSE 17:00:04 70° ENE 17:05:08 10° N visible
25 Nov 5.8 18:36:31 10° SW 18:39:36 16° W 18:42:43 10° NW visible
26 Nov 5.8 05:02:15 10° NE 05:05:58 20° E 05:09:40 10° SE visible
26 Nov 3.6 16:18:57 10° SE 16:23:28 34° ENE 16:28:02 10° N visible
26 Nov 4.7 17:57:54 10° SSW 18:02:28 33° W 18:07:05 10° NNW visible
27 Nov 3.2 17:20:30 10° S 17:25:33 71° WSW 17:30:39 10° NNW visible
28 Nov 4.9 05:27:06 10° NNE 05:31:42 33° E 05:36:16 10° SSE visible
28 Nov 3.0 16:43:53 10° SSE 16:48:49 56° ENE 16:53:48 10° N visible
28 Nov 5.5 18:24:31 10° SW 18:28:12 20° W 18:31:55 10° NW visible
29 Nov 6.0 04:51:27 10° NE 04:54:34 16° E 04:57:40 10° SE visible
29 Nov 3.8 16:08:01 10° ESE 16:12:17 28° ENE 16:16:34 10° N visible
29 Nov 4.3 17:46:21 10° SSW 17:51:08 41° W 17:55:57 10° NNW visible
